[[{"header":{"parameterUnit":"m.s-1","parameterCategory":1,"la1":30.2991,"la2":30.254,"lo1":-89.0895,"lo2":-89.0444,"dy":0.0017,"dx":0.0017,"nx":28,"ny":28,"refTime":"2025-12-29T09:00:00:Z","depth":0,"parameterNumber":2,"parameterNumberName":"U-component_of_WINDS"},"data":[0,0,0,0,0,0,0,0,0,0,0,0,0,0,0,0,0,0,0,0,0,0,0,0,0,0,0,0,0,0,0,0,0,0,0,0,0,0,0,0,0,0,0,0,0,0,0,0,0,0,0,0,0,0,0,0,0,0,1.4796,1.4796,0,1.4771,1.4771,1.477,1.4754,1.4753,1.4753,1.4753,1.4724,1.4724,1.4723,0,0,0,0,0,0,0,0,0,0,0,0,0,1.4829,1.4829,1.4796,1.4796,1.4796,1.4771,1.4771,1.477,1.4754,1.4753,1.4753,1.4753,1.4724,1.4724,1.4723,0,0,0,0,0,0,0,0,0,0,0,0,0,1.481,1.4828,1.4797,1.4785,1.4783,1.4771,1.4771,1.477,1.4754,1.4753,1.4753,1.4753,1.4725,1.4724,1.4723,1.4719,0,0,1.472,1.4719,0,0,0,0,0,0,0,0,1.4811,1.4809,1.4787,1.4785,1.4784,1.4765,1.4771,1.4753,1.4754,1.4765,1.4753,1.4753,1.4738,1.4736,1.4731,1.4718,1.4717,1.4719,1.4719,1.4718,1.4718,0,0,0,0,0,0,0,1.4813,1.481,1.4786,1.4786,1.4785,1.478,1.4777,1.4768,1.4752,1.4764,1.4763,1.476,1.4737,1.4732,1.473,1.4716,1.4719,1.4719,1.4718,1.4718,1.47,1.47,0,0,0,0,0,0,1.4816,1.4811,1.4787,1.4785,1.4798,1.478,1.4776,1.4771,1.4752,1.4749,1.476,1.4759,1.4734,1.4732,1.4729,1.4724,1.4718,1.4717,1.4717,1.47,1.47,1.47,0,0,0,0,0,0,1.4817,1.4814,1.4788,1.4798,1.4794,1.4779,1.4774,1.4771,1.4766,1.475,1.4747,1.4758,1.4734,1.4731,1.4722,1.4723,1.4717,1.4716,1.47,1.47,1.47,1.4715,0,0,0,0,0,0,1.4818,1.4815,1.4813,1.4798,1.4794,1.4782,1.4774,1.4771,1.4765,1.4763,1.4747,1.4744,1.4733,1.4724,1.4721,1.4722,1.4715,1.47,1.47,1.47,1.4714,1.4715,1.4717,0,0,0,0,0,1.4819,1.4818,1.4814,1.4811,1.4792,1.4782,1.478,1.4768,1.4765,1.4763,1.4753,1.4745,1.4724,1.4723,1.472,1.472,1.4699,1.47,1.47,1.4713,1.4715,1.4717,0,0,0,0,0,0,1.4832,1.4815,1.4811,1.4804,1.4795,1.4779,1.4777,1.477,1.4761,1.476,1.4745,1.4742,1.4735,1.4727,1.4726,1.4716,1.4711,1.471,1.4722,1.4723,1.4725,1.4726,1.4714,0,0,0,0,0,1.4834,1.4828,1.4814,1.481,1.4805,1.4792,1.4787,1.478,1.4769,1.4765,1.4754,1.4743,1.4734,1.4728,1.4719,1.4713,1.4709,1.4712,1.4713,1.4714,1.4714,1.4711,1.4711,1.4701,1.4701,1.4701,0,0,1.4839,1.4829,1.4826,1.4812,1.4804,1.4797,1.4789,1.4782,1.4777,1.4763,1.4755,1.4747,1.4734,1.4727,1.4723,1.472,1.4716,1.4715,1.4716,1.4715,1.4711,1.4712,1.4713,1.4702,1.4702,1.4702,0,0,1.4843,1.4835,1.4831,1.4824,1.4812,1.4804,1.4803,1.4789,1.4783,1.4775,1.4765,1.4758,1.4743,1.4735,1.4728,1.4732,1.4724,1.4729,1.4735,1.4732,1.4733,1.4734,1.4735,1.4735,1.4729,1.4729,1.4729,0,1.4849,1.484,1.4829,1.4824,1.4818,1.4807,1.4803,1.4796,1.4781,1.4778,1.4774,1.4756,1.4747,1.4738,1.4739,1.4734,1.4733,1.473,1.4734,1.4734,1.4735,1.4736,1.4736,1.473,1.473,1.473,1.473,0,1.4848,1.4842,1.484,1.4828,1.4822,1.4817,1.4806,1.4801,1.4795,1.4786,1.4779,1.4767,1.4756,1.4754,1.4746,1.4744,1.4742,1.4737,1.473,1.4737,1.4737,1.4737,1.4731,1.4731,1.473,1.473,0,0,1.4858,1.4842,1.4841,1.4836,1.4823,1.4818,1.4813,1.4803,1.4799,1.479,1.4785,1.4774,1.4769,1.4762,1.4754,1.4752,1.4755,1.4746,1.4746,1.4748,1.4752,1.4756,1.4756,1.475,1.475,1.475,1.4753,0,1.486,1.4851,1.4842,1.4836,1.483,1.482,1.4816,1.4807,1.48,1.4794,1.4785,1.4777,1.4772,1.4768,1.4765,1.4755,1.4756,1.4755,1.4745,1.4744,1.4747,1.4756,1.476,1.4763,1.4753,1.4753,1.4753,0,1.4861,1.4854,1.4847,1.4836,1.4833,1.483,1.482,1.4815,1.4805,1.48,1.4793,1.4785,1.4779,1.4775,1.4766,1.4766,1.4761,1.4756,1.4756,1.4753,1.4748,1.4754,1.4764,1.4764,1.4753,1.4753,1.4753,0,1.4869,1.4858,1.4852,1.4848,1.4835,1.4833,1.4827,1.4817,1.4812,1.4804,1.4801,1.4792,1.4787,1.478,1.477,1.4768,1.4762,1.4757,1.4757,1.4758,1.4756,1.4756,1.4764,1.4754,1.4754,1.4754,1.4754,0,1.4872,1.4868,1.4856,1.4853,1.4848,1.4839,1.4834,1.4828,1.4819,1.4814,1.4805,1.4801,1.4788,1.4782,1.4774,1.4768,1.4766,1.4761,1.4759,1.4761,1.4762,1.4757,1.4757,1.4754,1.4754,1.4754,1.4754,0,1.488,1.4871,1.4865,1.4854,1.4851,1.4848,1.4838,1.4834,1.4827,1.4821,1.4819,1.4808,1.48,1.479,1.4778,1.4773,1.4768,1.4765,1.4772,1.477,1.4771,1.4771,1.4776,1.4776,1.4767,1.4767,1.4767,0,1.4882,1.4879,1.4868,1.4864,1.4859,1.4853,1.4849,1.4839,1.4835,1.4825,1.4822,1.4814,1.4807,1.4795,1.4786,1.4777,1.4774,1.4776,1.4772,1.4775,1.4773,1.4773,1.4773,1.4777,1.4777,1.4777,1.4777,0,1.4886,1.4883,1.4877,1.487,1.4865,1.4858,1.4852,1.4849,1.4838,1.4834,1.4826,1.4821,1.4811,1.4803,1.4794,1.4787,1.478,1.4779,1.4778,1.478,1.4784,1.4782,1.4774,1.4778,1.4778,1.4778,1.4778,1.4778,1.4891,1.4888,1.488,1.4874,1.4868,1.4862,1.4859,1.4852,1.4846,1.4837,1.4832,1.4825,1.4816,1.4803,1.4797,1.4792,1.4789,1.4788,1.4788,1.4788,1.4789,1.4786,1.479,1.479,1.479,1.479,1.479,0,1.4894,1.4889,1.4884,1.4875,1.4871,1.4866,1.4859,1.4855,1.4849,1.4842,1.4836,1.4828,1.4821,1.4811,1.4803,1.48,1.4797,1.4799,1.4798,1.4797,1.4792,1.4793,1.4801,1.4801,1.4801,1.4801,1.4801,1.4801,1.4896,1.4891,1.4887,1.4879,1.4874,1.4868,1.4864,1.4858,1.4853,1.4845,1.4839,1.4833,1.4825,1.4817,1.481,1.4807,1.4804,1.4807,1.4803,1.4798,1.4797,1.4796,1.4797,1.4806,1.4806,1.4809,1.4809,1.4809]},{"header":{"parameterUnit":"m.s-1","parameterCategory":1,"la1":30.2991,"la2":30.254,"lo1":-89.0895,"lo2":-89.0444,"dy":0.0017,"dx":0.0017,"nx":28,"ny":28,"refTime":"2025-12-29T09:00:00:Z","depth":0,"parameterNumber":3,"parameterNumberName":"V-component_of_WINDS"},"data":[0,0,0,0,0,0,0,0,0,0,0,0,0,0,0,0,0,0,0,0,0,0,0,0,0,0,0,0,0,0,0,0,0,0,0,0,0,0,0,0,0,0,0,0,0,0,0,0,0,0,0,0,0,0,0,0,0,0,-8.1413,-8.1415,0,-8.1611,-8.1613,-8.1615,-8.1532,-8.1528,-8.1523,-8.1518,-8.1714,-8.1724,-8.1733,0,0,0,0,0,0,0,0,0,0,0,0,0,-8.0959,-8.0968,-8.1413,-8.1416,-8.1418,-8.161,-8.1613,-8.1616,-8.1533,-8.1527,-8.1522,-8.1516,-8.1711,-8.1722,-8.1734,0,0,0,0,0,0,0,0,0,0,0,0,0,-8.1156,-8.0971,-8.1413,-8.14,-8.1401,-8.161,-8.1613,-8.1616,-8.1534,-8.1527,-8.152,-8.1514,-8.1707,-8.1721,-8.1736,-8.1966,0,0,-8.178,-8.1786,0,0,0,0,0,0,0,0,-8.1145,-8.1173,-8.14,-8.1402,-8.1403,-8.154,-8.1524,-8.1733,-8.1536,-8.1484,-8.1518,-8.151,-8.1662,-8.1679,-8.1732,-8.1975,-8.1984,-8.1781,-8.179,-8.1796,-8.18,0,0,0,0,0,0,0,-8.1132,-8.1164,-8.1491,-8.1403,-8.1405,-8.1383,-8.1403,-8.1564,-8.161,-8.1488,-8.1482,-8.1507,-8.1661,-8.1718,-8.1736,-8.1986,-8.178,-8.1793,-8.1802,-8.1808,-8.2428,-8.2436,0,0,0,0,0,0,-8.1119,-8.1153,-8.1485,-8.1497,-8.1254,-8.1397,-8.1419,-8.1503,-8.1608,-8.1617,-8.1513,-8.1502,-8.1697,-8.1719,-8.1742,-8.2019,-8.1796,-8.1809,-8.1817,-8.2421,-8.243,-8.2438,0,0,0,0,0,0,-8.1109,-8.1149,-8.1477,-8.1324,-8.1364,-8.1412,-8.1507,-8.151,-8.1567,-8.1627,-8.1634,-8.1563,-8.1692,-8.1722,-8.1911,-8.2025,-8.1816,-8.1829,-8.2411,-8.2423,-8.2434,-8.2575,0,0,0,0,0,0,-8.1096,-8.1146,-8.1236,-8.1326,-8.1372,-8.1645,-8.1514,-8.1519,-8.1593,-8.1581,-8.1676,-8.1684,-8.1689,-8.189,-8.1926,-8.2041,-8.184,-8.2401,-8.2417,-8.2431,-8.256,-8.259,-8.2615,0,0,0,0,0,-8.1081,-8.1266,-8.1241,-8.1281,-8.1486,-8.1652,-8.1678,-8.1681,-8.1603,-8.1692,-8.173,-8.1681,-8.2006,-8.191,-8.195,-8.2071,-8.2394,-8.2412,-8.2429,-8.2548,-8.2584,-8.2614,0,0,0,0,0,0,-8.1185,-8.1278,-8.1251,-8.1471,-8.1555,-8.1638,-8.1751,-8.1719,-8.1825,-8.1809,-8.1806,-8.1828,-8.2024,-8.2066,-8.1957,-8.2299,-8.2188,-8.2214,-8.2265,-8.23,-8.2327,-8.2312,-8.1852,0,0,0,0,0,-8.1234,-8.1364,-8.1436,-8.1624,-8.1667,-8.1702,-8.1775,-8.177,-8.1855,-8.1889,-8.1941,-8.2024,-8.2145,-8.2224,-8.2338,-8.2565,-8.2584,-8.2668,-8.2695,-8.2717,-8.274,-8.2863,-8.2901,-8.2496,-8.2496,-8.2496,0,0,-8.1336,-8.1403,-8.1484,-8.1647,-8.1711,-8.1843,-8.1732,-8.1877,-8.1974,-8.191,-8.2094,-8.2134,-8.2226,-8.2436,-8.2531,-8.2477,-8.2856,-8.274,-8.2757,-8.2768,-8.2885,-8.2923,-8.2958,-8.2508,-8.2506,-8.2504,0,0,-8.159,-8.1654,-8.1818,-8.1885,-8.1983,-8.2005,-8.2045,-8.2133,-8.2159,-8.2342,-8.2297,-8.2412,-8.262,-8.2688,-8.2749,-8.3029,-8.2988,-8.3066,-8.321,-8.3329,-8.3361,-8.3389,-8.3489,-8.3525,-8.3088,-8.3088,-8.3089,0,-8.1705,-8.1904,-8.1905,-8.2054,-8.2127,-8.2077,-8.2241,-8.2305,-8.2436,-8.2486,-8.2424,-8.2685,-8.2743,-8.2967,-8.3036,-8.3087,-8.3131,-8.3055,-8.3357,-8.3385,-8.3412,-8.3507,-8.3544,-8.3097,-8.3096,-8.3095,-8.3095,0,-8.2039,-8.2178,-8.2298,-8.2428,-8.2514,-8.267,-8.2693,-8.2779,-8.2766,-8.2794,-8.2981,-8.305,-8.3177,-8.3229,-8.3218,-8.3453,-8.3416,-8.3356,-8.3245,-8.3459,-8.3548,-8.3585,-8.311,-8.3107,-8.3104,-8.3102,0,0,-8.2366,-8.2495,-8.2539,-8.2597,-8.2702,-8.2809,-8.2961,-8.3088,-8.3162,-8.3253,-8.3381,-8.3558,-8.3503,-8.3573,-8.3568,-8.3673,-8.3891,-8.36,-8.3602,-8.3652,-8.4153,-8.4198,-8.4241,-8.3864,-8.3871,-8.3876,-8.4145,0,-8.2628,-8.2899,-8.2904,-8.3152,-8.328,-8.3234,-8.3367,-8.3445,-8.3475,-8.3586,-8.3617,-8.3744,-8.3662,-8.3704,-8.3806,-8.3843,-8.3991,-8.3823,-8.3981,-8.3987,-8.396,-8.4287,-8.4336,-8.4587,-8.418,-8.4186,-8.4191,0,-8.2971,-8.3076,-8.3337,-8.3424,-8.3478,-8.3598,-8.3714,-8.3822,-8.3908,-8.3922,-8.4001,-8.3981,-8.4134,-8.4018,-8.4229,-8.4115,-8.4179,-8.4207,-8.4217,-8.4232,-8.4102,-8.4312,-8.4667,-8.4705,-8.4246,-8.4241,-8.4237,0,-8.3183,-8.3389,-8.3572,-8.3623,-8.373,-8.3815,-8.3863,-8.3943,-8.4018,-8.4119,-8.4168,-8.4285,-8.4349,-8.4438,-8.4449,-8.4363,-8.4662,-8.4546,-8.4676,-8.4677,-8.4742,-8.4738,-8.5113,-8.4783,-8.4782,-8.4781,-8.4781,0,-8.3476,-8.3638,-8.3669,-8.3782,-8.3961,-8.3965,-8.4141,-8.4181,-8.4253,-8.4371,-8.4337,-8.4449,-8.4456,-8.4569,-8.4578,-8.4752,-8.478,-8.4795,-8.4796,-8.4799,-8.4797,-8.4842,-8.4825,-8.4791,-8.4789,-8.4787,-8.4786,0,-8.3744,-8.3772,-8.3969,-8.4053,-8.4078,-8.4207,-8.4278,-8.4385,-8.4411,-8.4561,-8.4596,-8.4637,-8.4769,-8.4789,-8.4942,-8.4948,-8.5157,-8.5139,-8.5129,-8.5126,-8.5256,-8.5244,-8.5673,-8.573,-8.5362,-8.5366,-8.5369,0,-8.393,-8.4054,-8.4152,-8.423,-8.4283,-8.4409,-8.4487,-8.4494,-8.4576,-8.4684,-8.4777,-8.4906,-8.501,-8.5222,-8.5264,-8.5382,-8.5366,-8.5509,-8.5384,-8.5383,-8.5369,-8.5362,-8.5374,-8.5533,-8.5537,-8.554,-8.5543,0,-8.4257,-8.4265,-8.4379,-8.4499,-8.4593,-8.4687,-8.4776,-8.4841,-8.4859,-8.4952,-8.5088,-8.5169,-8.5327,-8.5455,-8.5572,-8.5618,-8.5584,-8.5582,-8.5619,-8.5623,-8.5613,-8.5621,-8.5195,-8.5572,-8.5569,-8.5567,-8.5566,-8.5564,-8.449,-8.4598,-8.4685,-8.4813,-8.4881,-8.4964,-8.5069,-8.5109,-8.5223,-8.5354,-8.5351,-8.55,-8.5582,-8.5735,-8.579,-8.5905,-8.5858,-8.5911,-8.5924,-8.5937,-8.5951,-8.5594,-8.5926,-8.5925,-8.5924,-8.5923,-8.5923,0,-8.4815,-8.4869,-8.4987,-8.5113,-8.5214,-8.5175,-8.5271,-8.5357,-8.549,-8.5571,-8.5674,-8.5829,-8.5953,-8.6005,-8.6126,-8.6209,-8.6196,-8.624,-8.6234,-8.6246,-8.5985,-8.5942,-8.6248,-8.6248,-8.6248,-8.6248,-8.6248,-8.6248,-8.4997,-8.5178,-8.5195,-8.5409,-8.546,-8.5608,-8.5666,-8.5742,-8.5807,-8.5983,-8.6087,-8.6121,-8.6189,-8.6315,-8.6427,-8.6438,-8.6485,-8.6536,-8.6541,-8.6297,-8.6264,-8.6233,-8.6192,-8.6546,-8.6547,-8.6792,-8.6794,-8.6796]}]]